| time (UTC) | temp F | wind direction | speed knots | gust knots | rain 1hr in | rain 24hr in | rain mn in | humidity % | barometer mb |
| 20260508011049 | 55 | 315 | 0.0 | 0.0 | 0.00 | 0.00 | 0.00 | 89 | 1012.5 |
| 20260508010048 | 55 | 293 | 0.0 | 0.0 | 0.00 | 0.00 | 0.00 | 89 | 1012.5 |
| 20260508004944 | 56 | 270 | 0.0 | 0.0 | 0.00 | 0.00 | 0.00 | 89 | 1012.5 |
| 20260508003912 | 56 | 248 | 0.0 | 0.0 | 0.00 | 0.00 | 0.00 | 89 | 1012.9 |
| 20260508002912 | 56 | 270 | 0.0 | 0.0 | 0.00 | 0.00 | 0.00 | 89 | 1012.9 |
| 20260508001911 | 56 | 270 | 0.0 | 0.0 | 0.00 | 0.00 | 0.00 | 89 | 1013.2 |
| 20260508000910 | 56 | 293 | 0.0 | 0.0 | 0.00 | 0.00 | 0.00 | 89 | 1013.2 |
| 20260507235909 | 56 | 293 | 0.0 | 0.0 | 0.00 | 0.00 | 0.00 | 89 | 1013.2 |
| 20260507234908 | 56 | 270 | 0.0 | 0.0 | 0.00 | 0.00 | 0.00 | 89 | 1013.2 |
| 20260507233907 | 56 | 270 | 0.0 | 0.0 | 0.00 | 0.00 | 0.00 | 88 | 1013.5 |
| 20260507232907 | 56 | 270 | 0.0 | 0.0 | 0.00 | 0.00 | 0.00 | 88 | 1013.9 |
| 20260507231906 | 57 | 270 | 0.0 | 0.0 | 0.00 | 0.00 | 0.00 | 88 | 1013.9 |
| 20260507230905 | 57 | 270 | 0.0 | 0.0 | 0.00 | 0.00 | 0.00 | 88 | 1013.9 |
| 20260507225904 | 57 | 270 | 0.0 | 0.0 | 0.00 | 0.00 | 0.00 | 88 | 1013.9 |
| 20260507224903 | 57 | 270 | 0.0 | 0.0 | 0.00 | 0.00 | 0.00 | 88 | 1013.9 |
| 20260507223902 | 58 | 270 | 0.0 | 0.0 | 0.00 | 0.00 | 0.00 | 88 | 1013.9 |
| 20260507222901 | 58 | 270 | 0.0 | 0.0 | 0.00 | 0.00 | 0.00 | 88 | 1013.9 |
| 20260507221900 | 58 | 270 | 0.0 | 0.0 | 0.00 | 0.00 | 0.00 | 87 | 1013.9 |
| 20260507220900 | 58 | 270 | 0.0 | 0.0 | 0.00 | 0.00 | 0.00 | 88 | 1013.9 |
| 20260507215859 | 58 | 270 | 0.0 | 0.0 | 0.00 | 0.00 | 0.00 | 87 | 1013.9 |
| 20260507214859 | 58 | 270 | 0.0 | 0.0 | 0.00 | 0.00 | 0.00 | 87 | 1013.9 |
| 20260507213827 | 58 | 270 | 0.0 | 0.0 | 0.00 | 0.00 | 0.00 | 87 | 1013.9 |
| 20260507212826 | 58 | 270 | 0.0 | 0.0 | 0.00 | 0.00 | 0.00 | 86 | 1013.9 |
| 20260507211825 | 58 | 270 | 0.0 | 0.0 | 0.00 | 0.00 | 0.00 | 86 | 1013.9 |
| 20260507205824 | 59 | 293 | 0.0 | 0.0 | 0.00 | 0.00 | 0.00 | 86 | 1013.5 |
| 20260507204824 | 59 | 293 | 0.0 | 0.0 | 0.00 | 0.00 | 0.00 | 86 | 1013.2 |
| 20260507203823 | 59 | 293 | 0.0 | 0.0 | 0.00 | 0.00 | 0.00 | 86 | 1013.5 |
| 20260507202822 | 59 | 293 | 0.0 | 0.0 | 0.00 | 0.00 | 0.00 | 85 | 1013.5 |
| 20260507201821 | 59 | 293 | 0.0 | 0.0 | 0.00 | 0.00 | 0.00 | 85 | 1013.5 |
| 20260507200820 | 59 | 293 | 0.0 | 0.0 | 0.00 | 0.00 | 0.00 | 84 | 1013.5 |
| 20260507195820 | 59 | 315 | 0.0 | 0.0 | 0.00 | 0.00 | 0.00 | 84 | 1013.2 |
| 20260507194819 | 60 | 315 | 0.0 | 0.0 | 0.00 | 0.00 | 0.00 | 83 | 1013.2 |
| 20260507193746 | 60 | 90 | 0.0 | 0.0 | 0.00 | 0.00 | 0.00 | 82 | 1012.9 |
| 20260507192745 | 61 | 90 | 0.0 | 0.0 | 0.00 | 0.00 | 0.00 | 82 | 1012.9 |
| 20260507191611 | 61 | 90 | 0.0 | 0.0 | 0.00 | 0.00 | 0.00 | 81 | 1012.9 |
| 20260507190611 | 62 | 158 | 0.0 | 0.0 | 0.00 | 0.00 | 0.00 | 81 | 1012.9 |
| 20260507185610 | 62 | 135 | 0.0 | 0.0 | 0.00 | 0.00 | 0.00 | 80 | 1012.9 |
| 20260507184609 | 62 | 293 | 0.0 | 0.0 | 0.00 | 0.00 | 0.00 | 79 | 1012.9 |
| 20260507183506 | 63 | 90 | 0.0 | 0.0 | 0.00 | 0.00 | 0.00 | 79 | 1012.9 |
| 20260507182506 | 63 | 45 | 0.0 | 0.0 | 0.00 | 0.00 | 0.00 | 78 | 1012.9 |
| 20260507181434 | 64 | 135 | 0.0 | 0.0 | 0.00 | 0.00 | 0.00 | 78 | 1012.9 |
| 20260507180434 | 64 | 113 | 0.0 | 0.0 | 0.00 | 0.00 | 0.00 | 78 | 1012.5 |
| 20260507175433 | 64 | 45 | 0.0 | 0.0 | 0.00 | 0.00 | 0.00 | 77 | 1012.5 |
| 20260507174432 | 64 | 68 | 0.0 | 0.0 | 0.00 | 0.00 | 0.00 | 77 | 1012.5 |
| 20260507173431 | 64 | 158 | 0.0 | 0.0 | 0.00 | 0.00 | 0.00 | 77 | 1012.5 |
| 20260507170754 | 65 | 225 | 0.0 | 0.0 | 0.00 | 0.00 | 0.00 | 76 | 1012.5 |
| 20260507165753 | 65 | 45 | 0.0 | 0.0 | 0.00 | 0.00 | 0.00 | 76 | 1012.5 |
| 20260507164753 | 65 | 113 | 0.0 | 0.0 | 0.00 | 0.00 | 0.00 | 75 | 1012.5 |
| 20260507163751 | 65 | 158 | 0.0 | 0.0 | 0.00 | 0.00 | 0.00 | 74 | 1012.5 |
| 20260507162649 | 66 | 158 | 0.0 | 0.0 | 0.00 | 0.00 | 0.00 | 73 | 1012.5 |
| 20260507161648 | 67 | 158 | 0.0 | 1.7 | 0.00 | 0.00 | 0.00 | 73 | 1012.5 |
| 20260507160616 | 67 | 180 | 1.7 | 1.7 | 0.00 | 0.00 | 0.00 | 72 | 1012.5 |
| 20260507155615 | 67 | 135 | 0.0 | 1.7 | 0.00 | 0.00 | 0.00 | 72 | 1012.5 |
| 20260507154614 | 67 | 135 | 0.0 | 0.0 | 0.00 | 0.00 | 0.00 | 72 | 1012.2 |
| 20260507153613 | 68 | 135 | 3.5 | 3.5 | 0.00 | 0.00 | 0.00 | 72 | 1012.5 |
| 20260507152612 | 67 | 113 | 0.0 | 0.0 | 0.00 | 0.00 | 0.00 | 72 | 1012.5 |
| 20260507151611 | 67 | 180 | 0.0 | 0.9 | 0.00 | 0.00 | 0.00 | 72 | 1012.5 |
| 20260507150611 | 67 | 113 | 0.0 | 0.0 | 0.00 | 0.00 | 0.00 | 71 | 1012.5 |
| 20260507145610 | 67 | 158 | 2.6 | 2.6 | 0.00 | 0.00 | 0.00 | 71 | 1012.5 |
| 20260507144609 | 68 | 23 | 0.0 | 0.0 | 0.00 | 0.00 | 0.00 | 69 | 1012.9 |
| 20260507143608 | 69 | 180 | 0.0 | 0.0 | 0.00 | 0.00 | 0.00 | 70 | 1012.9 |
| 20260507142607 | 68 | 90 | 0.0 | 1.7 | 0.00 | 0.00 | 0.00 | 69 | 1012.5 |
| 20260507141605 | 68 | 135 | 0.0 | 1.7 | 0.00 | 0.00 | 0.00 | 69 | 1012.5 |
| 20260507140605 | 67 | 90 | 1.7 | 1.7 | 0.00 | 0.00 | 0.00 | 70 | 1012.9 |
| 20260507135604 | 67 | 113 | 0.0 | 3.5 | 0.00 | 0.00 | 0.00 | 69 | 1012.9 |
| 20260507134603 | 68 | 158 | 3.5 | 3.5 | 0.00 | 0.00 | 0.00 | 68 | 1013.2 |
| 20260507133602 | 70 | 180 | 0.0 | 2.6 | 0.00 | 0.00 | 0.00 | 67 | 1013.2 |
| 20260507132601 | 70 | 135 | 2.6 | 3.5 | 0.00 | 0.00 | 0.00 | 67 | 1013.2 |
| 20260507131600 | 69 | 158 | 3.5 | 6.1 | 0.00 | 0.00 | 0.00 | 69 | 1013.2 |
| 20260507130559 | 69 | 58 | 3.5 | 4.3 | 0.00 | 0.00 | 0.00 | 69 | 1013.2 |
| 20260507124436 | 70 | 158 | 3.5 | 3.5 | 0.00 | 0.00 | 0.00 | 68 | 1012.9 |
| 20260507123434 | 70 | 148 | 4.3 | 5.2 | 0.00 | 0.00 | 0.00 | 68 | 1012.9 |
| 20260507122433 | 69 | 203 | 0.0 | 3.5 | 0.00 | 0.00 | 0.00 | 69 | 1012.9 |
| 20260507121432 | 69 | 90 | 4.3 | 4.3 | 0.00 | 0.00 | 0.00 | 69 | 1012.5 |
| 20260507120431 | 69 | 135 | 2.6 | 3.5 | 0.00 | 0.00 | 0.00 | 68 | 1012.9 |
| 20260507115359 | 69 | 165 | 1.7 | 4.3 | 0.00 | 0.00 | 0.00 | 69 | 1012.9 |
| 20260507114358 | 70 | 158 | 1.7 | 1.7 | 0.00 | 0.00 | 0.00 | 69 | 1012.9 |
| 20260507113358 | 69 | 113 | 0.0 | 1.7 | 0.00 | 0.00 | 0.00 | 70 | 1012.9 |
| 20260507112357 | 69 | 90 | 4.3 | 4.3 | 0.00 | 0.00 | 0.00 | 70 | 1012.9 |
| 20260507111356 | 69 | 113 | 0.0 | 7.8 | 0.00 | 0.00 | 0.00 | 70 | 1012.9 |
| 20260507110355 | 69 | 158 | 7.8 | 7.8 | 0.00 | 0.00 | 0.00 | 71 | 1012.9 |
| 20260507105354 | 69 | 119 | 3.5 | 5.2 | 0.00 | 0.00 | 0.00 | 70 | 1012.9 |
| 20260507104323 | 69 | 68 | 2.6 | 3.5 | 0.00 | 0.00 | 0.00 | 70 | 1012.9 |
| 20260507103322 | 69 | 68 | 2.6 | 3.5 | 0.00 | 0.00 | 0.00 | 70 | 1012.9 |
| 20260507102249 | 69 | 135 | 2.6 | 9.6 | 0.00 | 0.00 | 0.00 | 70 | 1012.9 |
| 20260507101249 | 69 | 52 | 5.2 | 7.0 | 0.00 | 0.00 | 0.00 | 71 | 1012.9 |
| 20260507100144 | 69 | 113 | 1.7 | 3.5 | 0.00 | 0.00 | 0.00 | 71 | 1012.9 |
| 20260507095113 | 69 | 135 | 3.5 | 4.3 | 0.00 | 0.00 | 0.00 | 71 | 1012.9 |
| 20260507094112 | 69 | 113 | 1.7 | 7.0 | 0.00 | 0.00 | 0.00 | 70 | 1012.9 |
| 20260507093111 | 70 | 98 | 1.7 | 2.6 | 0.00 | 0.00 | 0.00 | 70 | 1012.9 |
| 20260507092109 | 69 | 68 | 1.7 | 1.7 | 0.00 | 0.00 | 0.00 | 69 | 1012.9 |
| 20260507091109 | 69 | 90 | 0.9 | 0.9 | 0.00 | 0.00 | 0.00 | 70 | 1012.9 |
| 20260507090108 | 69 | 158 | 5.2 | 5.2 | 0.00 | 0.00 | 0.00 | 70 | 1012.5 |
| 20260507085107 | 69 | 83 | 1.7 | 3.5 | 0.00 | 0.00 | 0.00 | 69 | 1012.5 |
| 20260507084106 | 69 | 113 | 0.0 | 4.3 | 0.00 | 0.00 | 0.00 | 69 | 1012.5 |
| 20260507083105 | 69 | 135 | 4.3 | 4.3 | 0.00 | 0.00 | 0.00 | 68 | 1012.2 |
| 20260507082104 | 69 | 54 | 1.7 | 2.6 | 0.00 | 0.00 | 0.00 | 67 | 1012.2 |
| 20260507081103 | 69 | 90 | 0.0 | 0.0 | 0.00 | 0.00 | 0.00 | 68 | 1012.2 |
| 20260507075102 | 69 | 113 | 0.0 | 0.0 | 0.00 | 0.00 | 0.00 | 67 | 1012.2 |
| 20260507072537 | 67 | 90 | 0.0 | 0.0 | 0.00 | 0.00 | 0.00 | 72 | 1012.2 |
| 20260507071536 | 67 | 113 | 0.0 | 0.0 | 0.00 | 0.00 | 0.00 | 73 | 1011.9 |
| 20260507070535 | 66 | 158 | 0.0 | 0.0 | 0.00 | 0.00 | 0.00 | 74 | 1012.2 |
| 20260507065534 | 66 | 158 | 0.0 | 0.0 | 0.00 | 0.00 | 0.00 | 75 | 1011.9 |
| 20260507064533 | 65 | 135 | 0.0 | 0.0 | 0.00 | 0.00 | 0.00 | 77 | 1011.9 |
| 20260507063533 | 64 | 135 | 0.0 | 0.9 | 0.00 | 0.00 | 0.00 | 78 | 1011.5 |
| 20260507062532 | 63 | 270 | 0.0 | 0.0 | 0.00 | 0.00 | 0.00 | 80 | 1011.5 |
| 20260507061500 | 62 | 293 | 0.0 | 0.0 | 0.00 | 0.00 | 0.00 | 83 | 1011.5 |
| 20260507060459 | 60 | 203 | 0.0 | 0.0 | 0.00 | 0.00 | 0.00 | 86 | 1011.5 |
| 20260507054021 | 55 | 270 | 0.0 | 0.0 | 0.00 | 0.00 | 0.00 | 88 | 1011.2 |
| 20260507053020 | 55 | 270 | 0.0 | 0.0 | 0.00 | 0.00 | 0.00 | 88 | 1011.2 |
| 20260507052019 | 55 | 270 | 0.0 | 0.0 | 0.00 | 0.00 | 0.00 | 88 | 1011.2 |
| 20260507051018 | 54 | 338 | 0.0 | 0.0 | 0.00 | 0.00 | 0.00 | 88 | 1010.8 |
| 20260507050017 | 54 | 270 | 0.0 | 0.0 | 0.00 | 0.00 | 0.00 | 88 | 1010.8 |
| 20260507045016 | 53 | 23 | 0.0 | 0.0 | 0.00 | 0.00 | 0.00 | 88 | 1010.8 |
| 20260507044015 | 53 | 270 | 0.0 | 0.0 | 0.00 | 0.00 | 0.00 | 88 | 1010.8 |
| 20260507043014 | 53 | 270 | 0.0 | 0.0 | 0.00 | 0.00 | 0.00 | 88 | 1010.5 |
| 20260507042013 | 53 | 338 | 0.0 | 0.0 | 0.00 | 0.00 | 0.00 | 88 | 1010.5 |
| 20260507041012 | 53 | 158 | 0.0 | 0.0 | 0.00 | 0.00 | 0.00 | 88 | 1010.5 |
| 20260507040011 | 53 | 270 | 0.0 | 0.0 | 0.00 | 0.00 | 0.00 | 88 | 1010.5 |
| 20260507034939 | 53 | 68 | 0.0 | 0.0 | 0.00 | 0.00 | 0.00 | 88 | 1010.5 |
| 20260507033906 | 53 | 270 | 0.0 | 0.0 | 0.00 | 0.00 | 0.00 | 89 | 1010.5 |
| 20260507032906 | 53 | 248 | 0.0 | 0.0 | 0.00 | 0.00 | 0.00 | 89 | 1010.5 |
| 20260507031905 | 53 | 203 | 0.0 | 0.0 | 0.00 | 0.00 | 0.00 | 89 | 1010.5 |
| 20260507030905 | 53 | 270 | 0.0 | 0.0 | 0.00 | 0.00 | 0.00 | 89 | 1010.5 |
| 20260507025904 | 53 | 293 | 0.0 | 0.0 | 0.00 | 0.00 | 0.00 | 89 | 1010.5 |
| 20260507024903 | 53 | 315 | 0.0 | 0.0 | 0.00 | 0.00 | 0.00 | 89 | 1010.5 |
| 20260507023902 | 53 | 293 | 0.0 | 0.0 | 0.00 | 0.00 | 0.00 | 89 | 1010.2 |
| 20260507022758 | 53 | 270 | 0.0 | 0.0 | 0.00 | 0.00 | 0.00 | 89 | 1010.2 |
| 20260507021758 | 53 | 248 | 0.0 | 0.0 | 0.00 | 0.00 | 0.00 | 89 | 1010.2 |
| 20260507020757 | 53 | 270 | 0.0 | 0.0 | 0.00 | 0.00 | 0.00 | 89 | 1010.2 |
| 20260507015756 | 53 | 315 | 0.0 | 0.0 | 0.00 | 0.00 | 0.00 | 89 | 1010.2 |
| 20260507014756 | 53 | 338 | 0.0 | 0.0 | 0.00 | 0.00 | 0.00 | 89 | 1009.8 |
| 20260507013755 | 53 | 225 | 0.0 | 0.0 | 0.00 | 0.00 | 0.00 | 89 | 1010.2 |
| 20260507012753 | 53 | 23 | 0.0 | 0.0 | 0.00 | 0.00 | 0.00 | 89 | 1009.8 |